Kalispell, MT

4:58 AM MDT on June 24, 2017 (GMT -0600)
Glacier Park International

Weather History for KGPI - July, 2014

Change the Weather History Date:

Tuesday, July 22, 2014

  Actual Average Record
Temperature  
Mean Temperature 65 °F 66 °F  
Max Temperature 83 °F 83 °F 98 °F (1936)
Min Temperature 47 °F 49 °F 37 °F (1967)
Degree Days  
Heating Degree Days 0 2  
Month to date heating degree days 0 64  
Since 1 June heating degree days 253 280  
Since 1 July heating degree days 0 64  
Cooling Degree Days 0 3  
Month to date cooling degree days 90 40  
Year to date cooling degree days 90 56  
Since 1 June cooling degree days 90 53  
Growing Degree Days 14 (Base 50)    
Moisture  
Dew Point 50 °F    
Average Humidity 63    
Maximum Humidity 93    
Minimum Humidity 33    
Precipitation  
Precipitation 0.02 in 0.03 in 0.36 in (1924)
Month to date precipitation 0.28 1.16  
Year to date precipitation 12.77 10.33  
Snow  
Snow 0.00 in - - ()
Month to date snowfall 0.0  
Year to date snowfall 38.2  
Since 1 July snowfall 0.0  
Snow Depth 0.00 in    
Sea Level Pressure  
Sea Level Pressure 30.12 in    
Wind  
Wind Speed 4 mph (NNW)    
Max Wind Speed 20 mph    
Max Gust Speed 26 mph    
Visibility 10 miles    
Events Rain    
T = Trace of Precipitation, MM = Missing Value Source: NWS Daily Summary

Daily Weather History Graph

Daily Weather History Graph

Search for Another Location

Airport or City:

Trip Planner

Search our weather history database for the weather conditions in past years. The results will help you decide how hot, cold, wet, or windy it might be!

Date:

Astronomy

Jul. 22, 2014 Rise Set
Actual Time 5:59 AM MDT 9:26 PM MDT
Civil Twilight 5:21 AM MDT 10:04 PM MDT
Nautical Twilight 4:30 AM MDT 10:55 PM MDT
Astronomical Twilight 3:21 AM MDT 12:02 AM MDT
Moon 2:39 AM MDT (7/22) 6:05 PM MDT (7/22)
Length of Visible Light 16h 43m
Length of Day
15h 26m
Waning Crescent, 16% of the Moon is Illuminated
Jul 22
Waning Crescent
Jul 26
New
Aug 3
First Quarter
Aug 10
Full
Aug 17
Last Quarter

Hourly Weather History & Observations

Time (MDT) Temp. Dew Point Humidity Pressure Visibility Wind Dir Wind Speed Gust Speed Precip Events Conditions
12:55 AM 54.0 °F 45.0 °F 72% 30.04 in 10.0 mi Calm Calm - N/A   Clear
1:55 AM 52.0 °F 45.0 °F 77% 30.05 in 10.0 mi WNW 3.5 mph - N/A   Clear
2:55 AM 50.0 °F 44.1 °F 80% 30.07 in 10.0 mi WSW 3.5 mph - N/A   Clear
3:55 AM 50.0 °F 44.1 °F 80% 30.07 in 10.0 mi WNW 4.6 mph - N/A   Clear
4:55 AM 48.9 °F 44.1 °F 83% 30.08 in 10.0 mi Calm Calm - N/A   Clear
5:55 AM 51.1 °F 46.0 °F 83% 30.08 in 10.0 mi Calm Calm - N/A   Overcast
6:55 AM 51.1 °F 46.9 °F 86% 30.09 in 10.0 mi NNW 3.5 mph - N/A   Overcast
7:55 AM 55.9 °F 48.9 °F 77% 30.11 in 10.0 mi Calm Calm - N/A   Scattered Clouds
8:55 AM 57.0 °F 50.0 °F 77% 30.13 in 10.0 mi WNW 3.5 mph - N/A   Mostly Cloudy
9:55 AM 62.1 °F 48.0 °F 60% 30.12 in 10.0 mi North 5.8 mph - N/A   Scattered Clouds
10:55 AM 64.4 °F 48.2 °F 56% 30.16 in 10.0 mi NNW 4.6 mph - N/A   Mostly Cloudy
11:55 AM 64.9 °F 50.0 °F 58% 30.19 in 10.0 mi West 10.4 mph - N/A   Overcast
12:55 PM 71.1 °F 50.0 °F 47% 30.15 in 10.0 mi ENE 8.1 mph - 0.00 in   Scattered Clouds
1:55 PM 69.1 °F 48.9 °F 49% 30.15 in 10.0 mi East 4.6 mph - N/A   Overcast
2:55 PM 75.0 °F 50.0 °F 41% 30.15 in 10.0 mi North 5.8 mph - N/A   Scattered Clouds
3:55 PM 75.9 °F 48.9 °F 38% 30.14 in 10.0 mi Variable 6.9 mph - N/A   Clear
4:55 PM 80.1 °F 48.0 °F 32% 30.12 in 10.0 mi North 3.5 mph - N/A   Clear
5:55 PM 79.0 °F 48.9 °F 35% 30.11 in 10.0 mi North 5.8 mph - N/A   Clear
6:55 PM 66.9 °F 55.0 °F 66% 30.14 in 4.0 mi North - - 0.02 in Rain Rain
7:55 PM 69.8 °F 59.0 °F 68% 30.16 in 10.0 mi NW 3.5 mph - N/A   Clear
8:55 PM 64.9 °F 57.9 °F 78% 30.13 in 10.0 mi Calm Calm - N/A   Clear
9:55 PM 61.0 °F 57.0 °F 87% 30.14 in 10.0 mi WNW 3.5 mph - N/A   Clear
10:55 PM 57.9 °F 55.9 °F 93% 30.12 in 10.0 mi WNW 4.6 mph - N/A   Clear
11:55 PM 59.0 °F 55.9 °F 90% 30.14 in 10.0 mi NE 4.6 mph - N/A   Clear